Satellite-Ground Cal/Val Region Overpasses Predictions

Prediction of Satellite NPP Overpassing Cal/Val Region: PacNW

Region Location: (Latitude: 10.00, Longitude: 139.50) to (Latitude: 22.70, Longitude: 165.60).

Table of predicted overpasses for the next 14.0 days since TLE Epoch: 10/28/2016
Interval Starting Time Starting Location Ending Time Ending Location
1 10/28/2016 15:11:51 ( 22.68, 157.06) 10/28/2016 15:15:27 ( 10.00, 154.05)
2 10/29/2016 02:20:57 ( 10.04, 164.59) 10/29/2016 02:24:32 ( 22.66, 161.59)
3 10/29/2016 14:52:49 ( 22.67, 161.81) 10/29/2016 14:56:24 ( 10.04, 158.81)
4 10/30/2016 03:43:24 ( 10.00, 143.98) 10/30/2016 03:47:00 ( 22.68, 140.97)
5 10/30/2016 14:34:55 ( 18.72, 165.60) 10/30/2016 14:37:23 ( 10.03, 163.57)
6 10/30/2016 16:15:18 ( 22.65, 141.19) 10/30/2016 16:17:16 ( 15.72, 139.51)
7 10/31/2016 03:24:23 ( 10.02, 148.73) 10/31/2016 03:27:59 ( 22.70, 145.72)
8 10/31/2016 15:56:15 ( 22.69, 145.95) 10/31/2016 15:59:51 ( 10.01, 142.94)
9 11/01/2016 03:05:21 ( 10.03, 153.48) 11/01/2016 03:08:56 ( 22.66, 150.48)
10 11/01/2016 15:37:14 ( 22.67, 150.70) 11/01/2016 15:40:49 ( 10.05, 147.71)
11 11/02/2016 02:46:20 ( 10.05, 158.23) 11/02/2016 02:49:55 ( 22.67, 155.23)
12 11/02/2016 15:18:12 ( 22.66, 155.46) 11/02/2016 15:21:47 ( 10.03, 152.46)
13 11/03/2016 02:27:17 ( 10.01, 163.00) 11/03/2016 02:30:53 ( 22.69, 159.98)
14 11/03/2016 14:59:10 ( 22.70, 160.22) 11/03/2016 15:02:46 ( 10.02, 157.21)
15 11/04/2016 02:10:53 ( 19.25, 165.59) 11/04/2016 02:11:51 ( 22.65, 164.75)
16 11/04/2016 03:49:46 ( 10.03, 142.37) 11/04/2016 03:53:12 ( 22.13, 139.50)
17 11/04/2016 14:40:08 ( 22.68, 164.97) 11/04/2016 14:43:43 ( 10.06, 161.97)
18 11/04/2016 16:21:38 ( 22.67, 139.60) 11/04/2016 16:21:44 ( 22.32, 139.51)
19 11/05/2016 03:30:44 ( 10.05, 147.12) 11/05/2016 03:34:19 ( 22.67, 144.12)
20 11/05/2016 16:02:37 ( 22.66, 144.35) 11/05/2016 16:06:12 ( 10.04, 141.35)
21 11/06/2016 03:11:42 ( 10.01, 151.89) 11/06/2016 03:15:18 ( 22.69, 148.87)
22 11/06/2016 15:43:35 ( 22.70, 149.11) 11/06/2016 15:47:11 ( 10.02, 146.10)
23 11/07/2016 02:52:40 ( 10.03, 156.64) 11/07/2016 02:56:15 ( 22.65, 153.64)
24 11/07/2016 15:24:33 ( 22.68, 153.86) 11/07/2016 15:28:08 ( 10.06, 150.86)
25 11/08/2016 02:33:39 ( 10.05, 161.39) 11/08/2016 02:37:14 ( 22.67, 158.39)
26 11/08/2016 15:05:32 ( 22.66, 158.61) 11/08/2016 15:09:07 ( 10.04, 155.62)
27 11/09/2016 02:15:17 ( 12.42, 165.60) 11/09/2016 02:18:12 ( 22.69, 163.14)
28 11/09/2016 03:56:06 ( 10.02, 140.78) 11/09/2016 03:57:39 ( 15.48, 139.51)
29 11/09/2016 14:46:29 ( 22.70, 163.38) 11/09/2016 14:50:05 ( 10.02, 160.37)
30 11/10/2016 03:37:05 ( 10.04, 145.53) 11/10/2016 03:40:40 ( 22.66, 142.53)
31 11/10/2016 14:30:29 ( 12.06, 165.59) 11/10/2016 14:31:04 ( 10.00, 165.12)
32 11/10/2016 16:08:58 ( 22.68, 142.75) 11/10/2016 16:12:33 ( 10.06, 139.75)


NCC Satellite Cal/Val Overpasses Prediction Service
